User: anonymous   Login
Location: Theydon Bois
(51.6750°N, 0.1050°E)
Time: 21:37:20
(UTC+01:00)
Language:

Meteor 1-22 Rocket - Orbit

View from above orbital plane
View from above orbital plane
View from above satellite
View from above satellite

Ground track
Ground track

The orbit data is extracted from the following two-line orbital elements,

1  8294U 75087B   18202.91618110 -.00000213 +00000-0 -12453-3 0  9996
2  8294 081.2140 353.0037 0105094 355.1171 004.8962 14.08604513200872
Epoch (UTC): 21 July 2018 21:59:18
Eccentricity: 0.0105094
inclination: 81.2140°
perigee height: 788 km
apogee height: 940 km
right ascension of ascending node: 353.0037°
argument of perigee: 355.1171°
revolutions per day: 14.08604513
mean anomaly at epoch: 4.8962°
orbit number at epoch: 20087

The dashed part of the orbit path shows where the satellite is in the earth's shadow,  

DLR